Meteo orario Golcza

Oggi, 12 Aprile, Lunedi

Tempo Temperatura Precipitazioni Vento Pressione Umidità
00:00 +9°C° 0 mm 3 m/s 732 mm Hg 78%
01:00 +9°C° 0 mm 3 m/s 732 mm Hg 79%
02:00 +9°C° 0 mm 2 m/s 732 mm Hg 80%
03:00 +9°C° 0 mm 2 m/s 732 mm Hg 80%
04:00 +9°C° 0 mm 2 m/s 731 mm Hg 81%
05:00 +10°C° 0 mm 1 m/s 732 mm Hg 78%
06:00 +11°C° 0 mm 1 m/s 732 mm Hg 75%
07:00 +12°C° 0 mm 1 m/s 732 mm Hg 72%
08:00 +13°C° 0 mm 1 m/s 732 mm Hg 69%
09:00 +13°C° 0 mm 1 m/s 732 mm Hg 65%
10:00 +14°C° 0 mm 1 m/s 732 mm Hg 62%
11:00 +14°C° 0 mm 2 m/s 732 mm Hg 65%
12:00 +13°C° 0 mm 2 m/s 732 mm Hg 69%
13:00 +11°C° 0 mm 3 m/s 733 mm Hg 72%
14:00 +11°C° 0 mm 4 m/s 733 mm Hg 75%
15:00 +10°C° 0 mm 4 m/s 733 mm Hg 78%
16:00 +9°C° 0 mm 5 m/s 734 mm Hg 81%
17:00 +7°C° 0 mm 5 m/s 734 mm Hg 82%
18:00 +6°C° 0 mm 5 m/s 735 mm Hg 83%
19:00 +3°C° 0 mm 5 m/s 735 mm Hg 85%
20:00 +3°C° 0 mm 5 m/s 736 mm Hg 85%
21:00 +2°C° 0 mm 5 m/s 736 mm Hg 86%
22:00 +3°C° 0 mm 4 m/s 736 mm Hg 86%
23:00 +1°C° 1.1 mm 4 m/s 736 mm Hg 90%

Domani, 13 Aprile, Martedi

Tempo Temperatura Precipitazioni Vento Pressione Umidità
00:00 0°C° 1.1 mm 4 m/s 736 mm Hg 94%
01:00 0°C° 1.1 mm 4 m/s 737 mm Hg 98%
02:00 -1°C° 1.8 mm 4 m/s 737 mm Hg 98%
03:00 -1°C° 1.8 mm 4 m/s 737 mm Hg 98%
04:00 -2°C° 1.8 mm 4 m/s 737 mm Hg 99%
05:00 -2°C° 1.2 mm 4 m/s 737 mm Hg 99%
06:00 -2°C° 1.2 mm 5 m/s 737 mm Hg 98%
07:00 -2°C° 1.2 mm 5 m/s 738 mm Hg 98%
08:00 -2°C° 0.7 mm 5 m/s 738 mm Hg 99%
09:00 -1°C° 0.7 mm 5 m/s 738 mm Hg 99%
10:00 -1°C° 0.7 mm 5 m/s 738 mm Hg 99%
11:00 -1°C° 0.8 mm 5 m/s 738 mm Hg 99%
12:00 -1°C° 0.8 mm 5 m/s 738 mm Hg 99%
13:00 -1°C° 0.8 mm 4 m/s 738 mm Hg 99%
14:00 -1°C° 1.5 mm 4 m/s 737 mm Hg 99%
15:00 -1°C° 1.5 mm 4 m/s 737 mm Hg 99%
16:00 0°C° 1.5 mm 3 m/s 737 mm Hg 99%
17:00 -1°C° 0.8 mm 4 m/s 737 mm Hg 99%
18:00 -1°C° 0.8 mm 4 m/s 737 mm Hg 99%
19:00 -2°C° 0.8 mm 5 m/s 737 mm Hg 99%
20:00 -2°C° 0.6 mm 5 m/s 737 mm Hg 98%
21:00 -2°C° 0.6 mm 5 m/s 737 mm Hg 98%
22:00 -2°C° 0.6 mm 5 m/s 737 mm Hg 98%
23:00 -2°C° 0.3 mm 5 m/s 737 mm Hg 98%

Dopodomani, 14 Aprile, Mercoledi

Tempo Temperatura Precipitazioni Vento Pressione Umidità
00:00 -2°C° 0.3 mm 5 m/s 737 mm Hg 98%
01:00 -2°C° 0.3 mm 4 m/s 736 mm Hg 98%
02:00 -2°C° 0.4 mm 4 m/s 736 mm Hg 98%
03:00 -1°C° 0.4 mm 3 m/s 736 mm Hg 98%
04:00 -1°C° 0.4 mm 3 m/s 736 mm Hg 99%
05:00 -1°C° 0.5 mm 3 m/s 736 mm Hg 99%
06:00 -1°C° 0.5 mm 3 m/s 736 mm Hg 99%
07:00 -1°C° 0.5 mm 3 m/s 736 mm Hg 99%
08:00 0°C° 0.2 mm 3 m/s 736 mm Hg 97%
09:00 0°C° 0.2 mm 3 m/s 736 mm Hg 95%
10:00 0°C° 0.2 mm 4 m/s 736 mm Hg 93%
11:00 0°C° 0.1 mm 4 m/s 736 mm Hg 91%
12:00 +1°C° 0.1 mm 4 m/s 736 mm Hg 88%
13:00 +1°C° 0.1 mm 4 m/s 736 mm Hg 85%
14:00 +2°C° 0.1 mm 3 m/s 736 mm Hg 84%
15:00 +2°C° 0.1 mm 3 m/s 735 mm Hg 83%
16:00 +3°C° 0.1 mm 3 m/s 735 mm Hg 82%
17:00 +3°C° 0.1 mm 2 m/s 735 mm Hg 86%
18:00 +2°C° 0.1 mm 2 m/s 736 mm Hg 89%
19:00 +3°C° 0.1 mm 1 m/s 736 mm Hg 92%
20:00 +2°C° 0 mm 2 m/s 736 mm Hg 93%
21:00 +1°C° 0 mm 2 m/s 735 mm Hg 94%
22:00 +1°C° 0 mm 2 m/s 735 mm Hg 95%
23:00 +1°C° 0.2 mm 2 m/s 735 mm Hg 96%

15 Aprile, Giovedi

Tempo Temperatura Precipitazioni Vento Pressione Umidità
00:00 0°C° 0.2 mm 3 m/s 735 mm Hg 97%
01:00 0°C° 0.2 mm 3 m/s 735 mm Hg 98%
02:00 0°C° 0.3 mm 3 m/s 735 mm Hg 98%
03:00 0°C° 0.3 mm 3 m/s 734 mm Hg 98%
04:00 -1°C° 0.3 mm 4 m/s 734 mm Hg 98%
05:00 -1°C° 0.2 mm 4 m/s 734 mm Hg 98%
06:00 -1°C° 0.2 mm 4 m/s 735 mm Hg 97%
07:00 -1°C° 0.2 mm 4 m/s 735 mm Hg 97%
08:00 -1°C° 0.3 mm 4 m/s 735 mm Hg 98%
09:00 -1°C° 0.3 mm 4 m/s 735 mm Hg 98%
10:00 -1°C° 0.3 mm 5 m/s 735 mm Hg 98%
11:00 -1°C° 0.3 mm 5 m/s 735 mm Hg 98%
12:00 -1°C° 0.3 mm 4 m/s 735 mm Hg 98%
13:00 0°C° 0.3 mm 4 m/s 735 mm Hg 99%
14:00 -1°C° 0.2 mm 4 m/s 735 mm Hg 99%
15:00 -1°C° 0.2 mm 4 m/s 735 mm Hg 98%
16:00 -1°C° 0.2 mm 4 m/s 735 mm Hg 98%
17:00 -1°C° 0.1 mm 4 m/s 734 mm Hg 98%
18:00 -1°C° 0.1 mm 4 m/s 734 mm Hg 98%
19:00 -1°C° 0.1 mm 4 m/s 734 mm Hg 97%
20:00 -1°C° 0.1 mm 4 m/s 734 mm Hg 97%
21:00 -1°C° 0.1 mm 4 m/s 734 mm Hg 97%
22:00 -1°C° 0.1 mm 4 m/s 734 mm Hg 97%
23:00 0°C° 0.1 mm 3 m/s 734 mm Hg 97%

16 Aprile, Venerdi

Tempo Temperatura Precipitazioni Vento Pressione Umidità
00:00 0°C° 0.1 mm 3 m/s 734 mm Hg 97%
01:00 0°C° 0.1 mm 3 m/s 734 mm Hg 97%
02:00 0°C° 0.1 mm 3 m/s 734 mm Hg 97%
03:00 -1°C° 0.1 mm 3 m/s 734 mm Hg 97%
04:00 -1°C° 0.1 mm 3 m/s 734 mm Hg 97%
05:00 -2°C° 0 mm 4 m/s 734 mm Hg 96%
06:00 -1°C° 0 mm 4 m/s 734 mm Hg 96%
07:00 -1°C° 0 mm 4 m/s 734 mm Hg 95%
08:00 -1°C° 0.1 mm 4 m/s 734 mm Hg 93%
09:00 -1°C° 0.1 mm 4 m/s 734 mm Hg 92%
10:00 -1°C° 0.1 mm 4 m/s 735 mm Hg 90%
11:00 0°C° 0.1 mm 5 m/s 735 mm Hg 90%
12:00 0°C° 0.1 mm 5 m/s 735 mm Hg 89%
13:00 +1°C° 0.1 mm 5 m/s 735 mm Hg 88%
14:00 +1°C° 0.1 mm 4 m/s 735 mm Hg 90%
15:00 +1°C° 0.1 mm 4 m/s 735 mm Hg 92%
16:00 +1°C° 0.1 mm 4 m/s 735 mm Hg 93%
17:00 +1°C° 0.3 mm 3 m/s 735 mm Hg 95%
18:00 +1°C° 0.3 mm 3 m/s 735 mm Hg 96%
19:00 +1°C° 0.3 mm 3 m/s 735 mm Hg 98%
20:00 +1°C° 0.4 mm 3 m/s 735 mm Hg 98%
21:00 +1°C° 0.4 mm 3 m/s 735 mm Hg 98%
22:00 +1°C° 0.4 mm 3 m/s 735 mm Hg 98%
23:00 +1°C° 0.3 mm 3 m/s 735 mm Hg 98%

17 Aprile, Sabato

Tempo Temperatura Precipitazioni Vento Pressione Umidità
00:00 +1°C° 0.3 mm 3 m/s 735 mm Hg 98%
01:00 +1°C° 0.3 mm 3 m/s 734 mm Hg 98%
02:00 +1°C° 0.8 mm 3 m/s 734 mm Hg 98%
03:00 +1°C° 0.8 mm 3 m/s 734 mm Hg 98%
04:00 +2°C° 0.8 mm 3 m/s 734 mm Hg 98%
05:00 +2°C° 0.7 mm 3 m/s 734 mm Hg 98%
06:00 +2°C° 0.7 mm 3 m/s 734 mm Hg 98%
07:00 +3°C° 0.7 mm 2 m/s 734 mm Hg 98%
08:00 +4°C° 0 mm 2 m/s 734 mm Hg 98%
09:00 +4°C° 0 mm 2 m/s 734 mm Hg 98%
10:00 +6°C° 0 mm 1 m/s 734 mm Hg 98%
11:00 +6°C° 0 mm 1 m/s 734 mm Hg 97%
12:00 +7°C° 0 mm 1 m/s 734 mm Hg 96%
13:00 +8°C° 0 mm 1 m/s 734 mm Hg 95%
14:00 +7°C° 0 mm 2 m/s 734 mm Hg 93%
15:00 +7°C° 0 mm 2 m/s 735 mm Hg 90%
16:00 +7°C° 0 mm 3 m/s 735 mm Hg 88%
17:00 +7°C° 0 mm 2 m/s 735 mm Hg 90%
18:00 +6°C° 0 mm 2 m/s 735 mm Hg 92%
19:00 +6°C° 0 mm 1 m/s 735 mm Hg 94%
20:00 +4°C° 0 mm 2 m/s 735 mm Hg 95%
21:00 +4°C° 0 mm 2 m/s 735 mm Hg 96%
22:00 +3°C° 0 mm 2 m/s 735 mm Hg 97%
23:00 +2°C° 0 mm 3 m/s 735 mm Hg 97%
Mostrare altro

Abbiamo bisogno del tuo consenso

Meteoprog e i nostri fornitori di servizi possono memorizzare e accedere a dati personali come cookie, identificatori di dispositivi o altre tecnologie simili sul tuo dispositivo e possono elaborare tali dati per personalizzare i contenuti e gli annunci, nonché fornire funzionalità dei social media e analizzarne il traffico.

  • Archiviare e/o accedere alle informazioni sul tuo dispositivo

    Cookie, identificatori di dispositivi o altre informazioni possono essere memorizzati o resi accessibili sul tuo dispositivo per le finalità sopra indicate.

  • Annunci e contenuti personalizzati, misurazione di annunci e contenuti, approfondimenti sul pubblico e sviluppo di prodotti

    Gli annunci e i contenuti possono essere personalizzati in base a un profilo. È possibile aggiungere più dati per personalizzare meglio annunci e contenuti. È possibile misurare il rendimento degli annunci e dei contenuti. È possibile ricavare informazioni sul pubblico che ha visto gli annunci e i contenuti. Tali dati possono essere utilizzati per sviluppare o migliorare l'esperienza, i sistemi e il software dell'utente.

Cliccando su “Accetto”, acconsenti all'uso di cookie, identificatori di dispositivo, web beacon o altre tecnologie simili. Puoi modificare le impostazioni nel browser del tuo dispositivo.

Per determinati scopi, è possibile fare affidamento su interessi legali, piuttosto che sul consenso. Puoi approfondire questo argomento consultando la nostra Informativa sulla privacy e sui cookie.